Location: Helsinki
(60.1699°N, 24.9384°E)
Time: 20:31:43
(UTC+02:00)

Transit 4A - Pass Details

Date: 01 November 2020
Orbit: 862 x 982 km, 66.8° (Epoch: 30 November)

Event Time Altitude Azimuth Distance (km) Brightness Sun altitude
Rises 23:19:14 0° 313° (NW) 3,698 11.6 -43.9°
Reaches altitude 10° 23:21:59 10° 305° (NW) 2,747 10.7 -44.0°
Enters shadow 23:22:57 14° 301° (WNW) 2,431 10.4 -44.0°
Maximum altitude 23:27:48 38° 241° (WSW) 1,460 - -44.1°
Drops below altitude 10° 23:33:34 10° 176° (S) 2,702 - -44.3°
Sets 23:36:15 0° 168° (SSE) 3,631 - -44.3°
